GPS BIIR-4 (PRN 20)

Last updated on June 26, 2019, 3:46 a.m. UTC

1 26360U 00025A   19176.15457271  .00000019  00000-0  00000+0 0  9999
2 26360  53.3422 124.1068 0043455 138.5020 333.4139  2.00560733140131
UTC
Height (km)
Latitude
Longitude
Inclination
Orbital Period
UTC large
Height (km)
Speed (km/s)
/
Latitude / Longitude
Inclination (degrees)
Orbital Period (minutes)
Azimuth
Elevation
Range (km)
Doppler Factor
iOS Compass Heading
iOS Angle

Next 30 passes for location: Hong Kong

Rise time Rise Azimuth (degrees) Set time Set Azimuth (degrees) Duration Max altitude (degrees)

No matching passes for this satellites